Beverly, MA

3:43 PM EDT on October 22, 2017 (GMT -0400)
Beverly Municipal

Weather History for KBVY - December, 2012

Change the Weather History Date:

Tuesday, December 4, 2012

  Actual Average Record
Temperature  
Mean Temperature 44 °F -  
Max Temperature 59 °F 41 °F 69 °F (1998)
Min Temperature 30 °F 26 °F 12 °F (2002)
Degree Days  
Heating Degree Days 22    
Moisture  
Dew Point 41 °F    
Average Humidity 87    
Maximum Humidity 93    
Minimum Humidity 82    
Precipitation  
Precipitation 0.00 in - - ()
Sea Level Pressure  
Sea Level Pressure 30.21 in    
Wind  
Wind Speed 3 mph (South)    
Max Wind Speed 12 mph    
Max Gust Speed 20 mph    
Visibility 8 miles    
Events      
Averages and records for this station are not official NWS values.
T = Trace of Precipitation, MM = Missing Value Source: NWS Daily Summary

Daily Weather History Graph

Daily Weather History Graph

Search for Another Location

Airport or City:

Trip Planner

Search our weather history database for the weather conditions in past years. The results will help you decide how hot, cold, wet, or windy it might be!

Date:

Astronomy

Dec. 04, 2012 Rise Set
Actual Time 6:57 AM EST 4:10 PM EST
Civil Twilight 6:25 AM EST 4:42 PM EST
Nautical Twilight 5:50 AM EST 5:17 PM EST
Astronomical Twilight 5:16 AM EST 5:51 PM EST
Moon 9:59 PM EST (12/4) 10:45 AM EST (12/4)
Length of Visible Light 10h 16m
Length of Day
9h 13m
Waning Gibbous, 69% of the Moon is Illuminated
Dec 4
Waning Gibbous
Dec 6
Last Quarter
Dec 13
New
Dec 20
First Quarter
Dec 28
Full

Hourly Weather History & Observations

Time (EST) Temp. Windchill Dew Point Humidity Pressure Visibility Wind Dir Wind Speed Gust Speed Precip Events Conditions
12:53 AM 33.8 °F - 30.2 °F 87% 30.29 in 9.0 mi Calm Calm - N/A   Clear
1:53 AM 32.0 °F 28.7 °F 28.9 °F 88% 30.29 in 8.0 mi NW 3.5 mph - N/A   Clear
2:21 AM 33.8 °F - 30.2 °F 87% 30.30 in 9.0 mi Calm Calm - N/A   Mostly Cloudy
2:43 AM 30.2 °F - 28.4 °F 93% 30.29 in 10.0 mi Calm Calm - N/A   Scattered Clouds
2:53 AM 30.9 °F - 28.9 °F 92% 30.28 in 10.0 mi Calm Calm - N/A   Scattered Clouds
3:02 AM 32.0 °F - 28.4 °F 87% 30.29 in 10.0 mi Calm Calm - N/A   Mostly Cloudy
3:53 AM 33.1 °F 30.0 °F 30.9 °F 92% 30.28 in 10.0 mi NNW 3.5 mph - N/A   Overcast
4:53 AM 37.0 °F - 34.0 °F 89% 30.30 in 10.0 mi Calm Calm - N/A   Overcast
5:53 AM 37.0 °F - 34.0 °F 89% 30.30 in 10.0 mi Calm Calm - N/A   Overcast
6:45 AM 37.4 °F - 35.6 °F 93% 30.31 in 10.0 mi Calm Calm - N/A   Overcast
6:53 AM 37.9 °F - 35.1 °F 89% 30.31 in 10.0 mi Calm Calm - N/A   Overcast
7:34 AM 39.2 °F - 35.6 °F 87% 30.31 in 10.0 mi Calm Calm - N/A   Overcast
7:53 AM 39.9 °F - 36.0 °F 86% 30.30 in 10.0 mi Calm Calm - N/A   Overcast
8:00 AM 39.2 °F - 37.4 °F 93% 30.31 in 10.0 mi Calm Calm - N/A   Overcast
8:53 AM 45.0 °F 41.8 °F 42.1 °F 90% 30.29 in 5.0 mi SSW 5.8 mph - N/A   Overcast
9:53 AM 46.9 °F - 43.0 °F 86% 30.30 in 9.0 mi South 5.8 mph - N/A   Overcast
10:53 AM 46.9 °F - 43.0 °F 86% 30.27 in 9.0 mi SSE 5.8 mph - N/A   Overcast
11:30 AM 46.4 °F 43.5 °F 42.8 °F 87% 30.26 in 5.0 mi South 5.8 mph - N/A   Overcast
11:53 AM 46.9 °F - 43.0 °F 86% 30.24 in 7.0 mi SE 5.8 mph - N/A   Overcast
12:53 PM 48.0 °F - 44.1 °F 86% 30.21 in 7.0 mi South 4.6 mph - N/A   Overcast
1:53 PM 50.0 °F - 45.0 °F 83% 30.19 in 7.0 mi South 3.5 mph - N/A   Overcast
2:53 PM 51.1 °F - 46.0 °F 83% 30.17 in 8.0 mi South 5.8 mph - N/A   Overcast
3:17 PM 51.8 °F - 46.4 °F 82% 30.17 in 8.0 mi South 5.8 mph - N/A   Overcast
3:53 PM 52.0 °F - 48.0 °F 86% 30.16 in 7.0 mi South 6.9 mph - N/A   Overcast
4:53 PM 54.0 °F - 48.9 °F 83% 30.14 in 7.0 mi South 10.4 mph - N/A   Overcast
5:53 PM 54.0 °F - 50.0 °F 86% 30.12 in 6.0 mi South 6.9 mph - N/A   Overcast
6:53 PM 54.0 °F - 50.0 °F 86% 30.11 in 6.0 mi South 5.8 mph - N/A   Overcast
7:53 PM 55.0 °F - 50.0 °F 83% 30.08 in 7.0 mi South 5.8 mph - N/A   Overcast
8:53 PM 55.9 °F - 51.1 °F 84% 30.04 in 8.0 mi South 9.2 mph - N/A   Overcast
9:53 PM 57.0 °F - 52.0 °F 83% 30.00 in 9.0 mi South 10.4 mph - N/A   Overcast
10:53 PM 57.9 °F - 53.1 °F 84% 29.99 in 8.0 mi South 9.2 mph 17.3 mph N/A   Overcast
11:53 PM 59.0 °F - 54.0 °F 83% 29.96 in 9.0 mi South 11.5 mph 19.6 mph N/A   Overcast